Find Local Weather

World > North America > United States > California

South Lake Tahoe, California Regional Weather

Lat: 38.94N, Lon: 119.98W
Wx Zone: CAZ072
Feedback
Expires:201806230300;;962448
ASUS45 KREV 230210
RWRNV 
NEVADA REGIONAL WEATHER ROUNDUP
NATIONAL WEATHER SERVICE RENO NV
700 PM PDT FRI JUN 22 2018

NOTE: "FAIR" INDICATES FEW OR NO CLOUDS BELOW 12,000 FEET WITH NO
SIGNIFICANT WEATHER AND/OR OBSTRUCTIONS TO VISIBILITY.


NVZ002-CAZ072-073-230300-
NORTHERN AND CENTRAL SIERRA
  
CITY           SKY/WX    TMP DP  RH WIND       PRES   REMARKS
S. LAKE TAHOE  SUNNY     75  32  20 VRB5      30.16R                  
TRUCKEE        SUNNY     77  36  22 W8        30.14S                  
SQUAW VLY 8000   N/A     66  34  30 W7          N/A                   
BLUE CANYON    SUNNY     76  38  25 W5        30.13F                  
MAMMOTH LAKES  FAIR      81  12   7 W15       30.19S                  
BRIDGEPORT     FAIR      78  22  12 VRB3      30.15S                  
$$


SKY/WX - Weather  TMP - Temperature  DP - Dewpoint  RH - Relative Humidity
WIND - Wind Direction/Speed PRES - Barometric Pressure